EW5542 Weather Reports


time (UTC)temp
C
wind
direction
speed
KPH
gust
KPH
rain 1hr
cm
rain 24hr
cm
rain mn
cm
humidity
%
barometer
mb
20260504081525 15 109 0.0 16.1 0.00 0.23 0.23 80 1008.7
20260504044604 17 190 4.8 25.7 0.00 0.00 0.00 61 1008.5
20260504043058 17 182 0.0 22.5 0.00 0.00 0.00 60 1008.6
20260504041553 17 202 3.2 20.9 0.00 0.00 0.00 59 1009.1
20260504040105 17 194 3.2 19.3 0.00 0.00 0.00 58 1009.2
20260504034611 18 185 4.8 25.7 0.00 0.00 0.00 57 1009.2
20260504033050 18 162 1.6 33.8 0.00 0.00 0.00 57 1009.1
20260504031549 18 168 9.7 30.6 0.00 0.00 0.00 56 1009.1
20260504030113 18 162 12.9 29.0 0.00 0.00 0.00 55 1009.1
20260504024554 18 127 6.4 22.5 0.00 0.00 0.00 54 1009.3
20260504023047 18 185 11.3 30.6 0.00 0.00 0.00 54 1009.3
20260504021551 18 177 1.6 32.2 0.00 0.00 0.00 54 1009.2
20260504020045 18 132 9.7 33.8 0.00 0.00 0.00 53 1009.2
20260504014646 18 134 6.4 27.4 0.00 0.00 0.00 52 1009.0
20260504013050 18 143 3.2 25.7 0.00 0.00 0.00 52 1009.1
20260504011544 19 149 9.7 24.1 0.00 0.00 0.00 51 1008.9
20260504010043 20 133 0.0 24.1 0.00 0.00 0.00 49 1009.0
20260504004542 20 134 8.0 29.0 0.00 0.00 0.00 49 1009.0
20260504003041 20 180 4.8 24.1 0.00 0.00 0.00 48 1009.1
20260504001554 20 144 1.6 20.9 0.00 0.00 0.00 47 1009.1
20260504000039 21 148 0.0 30.6 0.00 0.00 0.00 45 1009.3
20260503234537 21 195 6.4 22.5 0.00 0.00 0.00 43 1009.4
20260503233039 21 146 8.0 19.3 0.00 0.00 0.00 42 1009.7
20260503231536 21 177 3.2 32.2 0.00 0.00 0.00 42 1009.6
20260503230032 21 188 17.7 35.4 0.00 0.00 0.00 41 1009.8
20260503224533 21 144 11.3 35.4 0.00 0.00 0.00 40 1010.0
20260503223030 21 136 11.3 35.4 0.00 0.00 0.00 41 1010.0
20260503221529 21 189 12.9 32.2 0.00 0.00 0.00 40 1010.1
20260503220027 21 133 6.4 30.6 0.00 0.00 0.00 41 1010.2
20260503214524 21 162 20.9 33.8 0.00 0.00 0.00 40 1010.2
20260503213022 21 136 14.5 38.6 0.00 0.00 0.00 40 1010.4
20260503211525 21 190 11.3 33.8 0.00 0.00 0.00 41 1010.7
20260503210017 21 170 11.3 35.4 0.00 0.00 0.00 40 1011.0
20260503204513 20 154 16.1 40.2 0.00 0.03 0.00 40 1011.6
20260503203011 20 185 11.3 32.2 0.00 0.03 0.00 40 1011.6
20260503201508 20 135 1.6 45.1 0.00 0.03 0.00 42 1012.1
20260503200005 20 148 4.8 29.0 0.00 0.03 0.00 43 1012.4
20260503194501 20 146 22.5 45.1 0.00 0.03 0.00 43 1013.0
20260503193112 19 180 17.7 35.4 0.00 0.03 0.00 45 1013.4
20260503191558 18 135 4.8 32.2 0.00 0.03 0.00 46 1013.7
20260503190105 18 163 14.5 35.4 0.00 0.03 0.00 46 1014.3
20260503184551 18 156 16.1 33.8 0.00 0.03 0.00 46 1014.9
20260503183058 18 190 3.2 35.4 0.00 0.03 0.00 47 1015.2
20260503181543 17 191 3.2 35.4 0.00 0.03 0.00 48 1015.5
20260503180051 17 198 22.5 40.2 0.00 0.03 0.00 46 1016.0
20260503174537 17 161 4.8 30.6 0.00 0.15 0.00 49 1016.4
20260503173041 17 123 14.5 38.6 0.00 0.15 0.00 50 1016.9
20260503171539 16 156 12.9 37.0 0.00 0.15 0.00 51 1017.2
20260503140118 12 190 14.5 33.8 0.00 0.15 0.00 64 1019.2